Volver al catálogo

STARLINK-5485

ActivoComunicacionesVLEO
NORAD 57261·PAYLOAD·🇺🇸 United States

Lanzado Jul 7, 2023 desde Vandenberg Space Force Base

Loading…

Próximos Pases (próximas 24 horas)

TLE

ActualizadoSource: CelesTrak SupGP

Época: Sep 15, 2026, 02:47 UTC

1 57261C 23094AV  26258.11645833 -.00043332  00000+0 -15694-2 0  2584
2 57261  43.0016  40.8496 0001462 264.5621 210.0278 15.27600613    19

Sigue STARLINK-5485 en tiempo real con AllMySat

Download on the App Store